Weather History for Grove, OK

Change the Weather History Date:

Wednesday, December 25, 2013

  Actual Average (KSLG) Record (KSLG)
Temperature  
Mean Temperature 34 °F -  
Max Temperature 42 °F 43 °F 57 °F (2008)
Min Temperature 26 °F 26 °F 10 °F (2002)
Degree Days  
Heating Degree Days 31    
Moisture  
Dew Point 32 °F    
Average Humidity 90    
Maximum Humidity 100    
Minimum Humidity 70    
Precipitation  
Precipitation 0.00 in - - ()
Sea Level Pressure  
Sea Level Pressure 30.36 in    
Wind  
Wind Speed 1 mph (WNW)    
Max Wind Speed 9 mph    
Max Gust Speed -    
Visibility 8 miles    
Events      
Averages and records for this station are not official NWS values.
T = Trace of Precipitation, MM = Missing Value Source: NWS Daily Summary

Daily Weather History Graph

Daily Weather History Graph

Search for Another Location

Airport:

Trip Planner

Search our weather history database for the weather conditions in past years. The results will help you decide how hot, cold, wet, or windy it might be!

Date:

Astronomy

Dec. 25, 2013 Rise Set
Actual Time 7:29 AM CST 5:09 PM CST
Civil Twilight 7:00 AM CST 5:38 PM CST
Nautical Twilight 6:28 AM CST 6:10 PM CST
Astronomical Twilight 5:56 AM CST 6:41 PM CST
Moon 12:06 AM CST (12/25) 12:05 PM CST (12/25)
Length of Visible Light 10h 37m
Length of Day
9h 39m
Waning Gibbous, 48% of the Moon is Illuminated
Dec 25
Waning Gibbous
Jan 1
New
Jan 7
First Quarter
Jan 15
Full
Jan 23
Last Quarter

Hourly Weather History & Observations

Time (CST) Temp. Windchill Dew Point Humidity Pressure Visibility Wind Dir Wind Speed Gust Speed Precip Events Conditions
12:15 AM 32.0 °F - 28.4 °F 87% 30.31 in 10.0 mi Calm Calm - N/A   Clear
12:35 AM 30.2 °F - 28.4 °F 93% 30.31 in 10.0 mi Calm Calm - N/A   Clear
12:55 AM 30.2 °F - 28.4 °F 93% 30.30 in 10.0 mi Calm Calm - N/A   Clear
1:15 AM 30.2 °F - 30.2 °F 100% 30.30 in 10.0 mi Calm Calm - N/A   Scattered Clouds
1:35 AM 30.2 °F - 30.2 °F 100% 30.30 in 10.0 mi Calm Calm - N/A   Scattered Clouds
1:55 AM 30.2 °F - 30.2 °F 100% 30.31 in 10.0 mi Calm Calm - N/A   Scattered Clouds
2:15 AM 28.4 °F - 28.4 °F 100% 30.31 in 10.0 mi Calm Calm - N/A   Mostly Cloudy
2:35 AM 30.2 °F - 30.2 °F 100% 30.32 in 10.0 mi Calm Calm - N/A   Overcast
2:55 AM 30.2 °F - 30.2 °F 100% 30.32 in 10.0 mi Calm Calm - N/A   Mostly Cloudy
3:15 AM 30.2 °F - 30.2 °F 100% 30.32 in 10.0 mi Calm Calm - N/A   Mostly Cloudy
3:35 AM 32.0 °F - 32.0 °F 100% 30.32 in 10.0 mi Calm Calm - N/A   Overcast
3:55 AM 32.0 °F - 32.0 °F 100% 30.31 in 10.0 mi Calm Calm - N/A   Overcast
4:15 AM 32.0 °F 28.7 °F 32.0 °F 100% 30.31 in 10.0 mi SE 3.5 mph - N/A   Overcast
4:35 AM 32.0 °F 28.7 °F 32.0 °F 100% 30.30 in 10.0 mi SE 3.5 mph - N/A   Overcast
4:55 AM 32.0 °F - 32.0 °F 100% 30.30 in 10.0 mi Calm Calm - N/A   Overcast
5:15 AM 32.0 °F - 32.0 °F 100% 30.30 in 10.0 mi Calm Calm - N/A   Overcast
5:35 AM 32.0 °F - 32.0 °F 100% 30.30 in 10.0 mi Calm Calm - N/A   Overcast
5:55 AM 32.0 °F - 32.0 °F 100% 30.31 in 10.0 mi Calm Calm - N/A   Overcast
6:15 AM 32.0 °F - 32.0 °F 100% 30.32 in 10.0 mi Calm Calm - N/A   Overcast
6:35 AM 32.0 °F - 32.0 °F 100% 30.32 in 10.0 mi Calm Calm - N/A   Overcast
6:55 AM 32.0 °F - 32.0 °F 100% 30.33 in 10.0 mi Calm Calm - N/A   Overcast
7:15 AM 32.0 °F - 32.0 °F 100% 30.34 in 10.0 mi Calm Calm - N/A   Overcast
7:35 AM 32.0 °F - 32.0 °F 100% 30.35 in 10.0 mi Calm Calm - N/A   Overcast
7:55 AM 32.0 °F - 32.0 °F 100% 30.36 in 10.0 mi Calm Calm - N/A   Overcast
8:15 AM 33.8 °F - 33.8 °F 100% 30.36 in 10.0 mi Calm Calm - N/A   Overcast
8:35 AM 33.8 °F - 32.0 °F 93% 30.36 in 10.0 mi Calm Calm - N/A   Overcast
8:55 AM 35.6 °F - 32.0 °F 87% 30.36 in 10.0 mi Calm Calm - N/A   Overcast
9:15 AM 37.4 °F - 32.0 °F 81% 30.36 in 10.0 mi Calm Calm - N/A   Mostly Cloudy
9:35 AM 37.4 °F - 32.0 °F 81% 30.36 in 10.0 mi Calm Calm - N/A   Scattered Clouds
9:55 AM 37.4 °F 34.9 °F 32.0 °F 81% 30.36 in 10.0 mi SSW 3.5 mph - N/A   Scattered Clouds
10:15 AM 37.4 °F 34.9 °F 32.0 °F 81% 30.38 in 10.0 mi WSW 3.5 mph - N/A   Scattered Clouds
10:35 AM 41.0 °F - 32.0 °F 70% 30.37 in 10.0 mi Calm Calm - N/A   Scattered Clouds
10:55 AM 41.0 °F 37.1 °F 32.0 °F 70% 30.38 in 10.0 mi NNW 5.8 mph - N/A   Scattered Clouds
11:15 AM 41.0 °F 37.1 °F 32.0 °F 70% 30.38 in 10.0 mi NW 5.8 mph - N/A   Scattered Clouds
11:35 AM 42.8 °F 39.3 °F 33.8 °F 70% 30.37 in 10.0 mi WNW 5.8 mph - N/A   Mostly Cloudy
11:55 AM 41.0 °F 37.1 °F 33.8 °F 76% 30.37 in 10.0 mi NNW 5.8 mph - N/A   Scattered Clouds
12:15 PM 41.0 °F 37.1 °F 32.0 °F 70% 30.36 in 10.0 mi NW 5.8 mph - N/A   Scattered Clouds
12:35 PM 41.0 °F 37.1 °F 33.8 °F 76% 30.36 in 10.0 mi NW 5.8 mph - N/A   Scattered Clouds
12:55 PM 41.0 °F 39.0 °F 33.8 °F 76% 30.35 in 7.0 mi NNW 3.5 mph - N/A   Scattered Clouds
1:15 PM 41.0 °F 38.0 °F 33.8 °F 76% 30.35 in 7.0 mi WNW 4.6 mph - N/A   Scattered Clouds
1:35 PM 42.8 °F 38.6 °F 33.8 °F 70% 30.35 in 7.0 mi WNW 6.9 mph - N/A   Mostly Cloudy
1:55 PM 41.0 °F 35.2 °F 33.8 °F 76% 30.36 in 7.0 mi WNW 9.2 mph - N/A   Overcast
2:15 PM 41.0 °F 35.2 °F 33.8 °F 76% 30.36 in 7.0 mi NW 9.2 mph - N/A   Overcast
2:35 PM 41.0 °F 38.0 °F 33.8 °F 76% 30.36 in 7.0 mi WNW 4.6 mph - N/A   Overcast
2:55 PM 41.0 °F 39.0 °F 33.8 °F 76% 30.36 in 7.0 mi NW 3.5 mph - N/A   Scattered Clouds
3:15 PM 42.8 °F 40.1 °F 33.8 °F 70% 30.35 in 7.0 mi WSW 4.6 mph - N/A   Clear
3:35 PM 41.0 °F 38.0 °F 33.8 °F 76% 30.36 in 7.0 mi West 4.6 mph - N/A   Clear
3:55 PM 41.0 °F 39.0 °F 33.8 °F 76% 30.36 in 7.0 mi WSW 3.5 mph - N/A   Clear
4:15 PM 41.0 °F 38.0 °F 33.8 °F 76% 30.36 in 7.0 mi West 4.6 mph - N/A   Clear
4:35 PM 41.0 °F 39.0 °F 33.8 °F 76% 30.36 in 7.0 mi West 3.5 mph - N/A   Clear
4:55 PM 39.2 °F - 32.0 °F 75% 30.36 in 7.0 mi Calm Calm - N/A   Clear
5:15 PM 37.4 °F - 32.0 °F 81% 30.37 in 7.0 mi Calm Calm - N/A   Clear
5:35 PM 33.8 °F - 32.0 °F 93% 30.37 in 7.0 mi Calm Calm - N/A   Clear
5:55 PM 33.8 °F - 32.0 °F 93% 30.37 in 7.0 mi Calm Calm - N/A   Clear
6:15 PM 33.8 °F - 32.0 °F 93% 30.38 in 7.0 mi Calm Calm - N/A   Clear
6:35 PM 33.8 °F - 33.8 °F 100% 30.38 in 7.0 mi Calm Calm - N/A   Clear
6:55 PM 32.0 °F - 32.0 °F 100% 30.39 in 5.0 mi Calm Calm - N/A   Clear
7:15 PM 32.0 °F - 32.0 °F 100% 30.39 in 5.0 mi Calm Calm - N/A   Clear
7:35 PM 32.0 °F - 32.0 °F 100% 30.40 in 5.0 mi Calm Calm - N/A   Clear
7:55 PM 32.0 °F - 32.0 °F 100% 30.40 in 5.0 mi Calm Calm - N/A   Clear
8:15 PM 32.0 °F - 32.0 °F 100% 30.40 in 4.0 mi Calm Calm - N/A   Clear
8:35 PM 30.2 °F - 30.2 °F 100% 30.40 in 3.0 mi Calm Calm - N/A   Clear
8:55 PM 30.2 °F - 30.2 °F 100% 30.41 in 4.0 mi Calm Calm - N/A   Clear
9:15 PM 30.2 °F - 30.2 °F 100% 30.41 in 4.0 mi Calm Calm - N/A   Clear
9:35 PM 28.4 °F - 28.4 °F 100% 30.41 in 3.0 mi Calm Calm - N/A   Clear
9:55 PM 28.4 °F - 28.4 °F 100% 30.41 in 4.0 mi Calm Calm - N/A   Clear
10:15 PM 28.4 °F - 28.4 °F 100% 30.41 in 4.0 mi Calm Calm - N/A   Clear
10:35 PM 28.4 °F - 28.4 °F 100% 30.42 in 4.0 mi Calm Calm - N/A   Clear
10:55 PM 28.4 °F - 28.4 °F 100% 30.42 in 4.0 mi Calm Calm - N/A   Clear
11:15 PM 26.6 °F - 26.6 °F 100% 30.42 in 4.0 mi Calm Calm - N/A   Clear
11:35 PM 26.6 °F - 26.6 °F 100% 30.41 in 4.0 mi Calm Calm - N/A   Clear
11:55 PM 26.6 °F - 26.6 °F 100% 30.41 in 4.0 mi Calm Calm - N/A   Clear